[[{"header":{"parameterUnit":"m.s-1","parameterCategory":1,"la1":30.2991,"la2":30.254,"lo1":-89.0895,"lo2":-89.0444,"dy":0.0017,"dx":0.0017,"nx":28,"ny":28,"refTime":"2025-05-15T09:00:00:Z","depth":0,"parameterNumber":2,"parameterNumberName":"U-component_of_WINDS"},"data":[0,0,0,0,0,0,0,0,0,0,0,0,0,0,0,0,0,0,0,0,0,0,0,0,0,0,0,0,0,0,0,0,0,0,0,0,0,0,0,0,0,0,0,0,0,0,0,0,0,0,0,0,0,0,0,0,0,0,1.7352,1.7352,0,1.7393,1.7393,1.7394,1.7368,1.7367,1.7366,1.7365,1.7408,1.741,1.7413,0,0,0,0,0,0,0,0,0,0,0,0,0,1.7254,1.7256,1.7352,1.7353,1.7353,1.7393,1.7393,1.7394,1.7369,1.7367,1.7366,1.7364,1.7408,1.741,1.7413,0,0,0,0,0,0,0,0,0,0,0,0,0,1.7296,1.7256,1.7352,1.7345,1.7345,1.7392,1.7393,1.7394,1.7369,1.7367,1.7365,1.7364,1.7407,1.741,1.7413,1.747,0,0,1.7424,1.7425,0,0,0,0,0,0,0,0,1.7293,1.7299,1.7346,1.7346,1.7346,1.7374,1.7374,1.7419,1.7369,1.736,1.7365,1.7363,1.7398,1.7402,1.7414,1.7472,1.7474,1.7424,1.7426,1.7428,1.7428,0,0,0,0,0,0,0,1.729,1.7297,1.7368,1.7346,1.7346,1.734,1.7344,1.7383,1.7389,1.7361,1.7359,1.7364,1.7398,1.7411,1.7415,1.7475,1.7424,1.7427,1.7429,1.743,1.7581,1.7583,0,0,0,0,0,0,1.7288,1.7295,1.7367,1.7369,1.7314,1.7344,1.7348,1.7366,1.7388,1.739,1.7365,1.7363,1.7406,1.7411,1.7416,1.7483,1.7427,1.7431,1.7433,1.7579,1.7581,1.7583,0,0,0,0,0,0,1.7286,1.7295,1.7365,1.7332,1.734,1.7347,1.7368,1.7368,1.7381,1.7392,1.7393,1.7377,1.7404,1.7411,1.7456,1.7484,1.7432,1.7435,1.7576,1.7579,1.7582,1.7618,0,0,0,0,0,0,1.7283,1.7294,1.7315,1.7332,1.7342,1.7405,1.737,1.737,1.7387,1.7383,1.7403,1.7405,1.7404,1.7452,1.746,1.7488,1.7438,1.7574,1.7578,1.7581,1.7615,1.7622,1.7629,0,0,0,0,0,1.728,1.7325,1.7317,1.7325,1.7369,1.7406,1.7412,1.7409,1.7389,1.741,1.7417,1.7404,1.748,1.7456,1.7466,1.7495,1.7572,1.7577,1.7581,1.7612,1.7621,1.7628,0,0,0,0,0,0,1.7311,1.7327,1.7318,1.737,1.7387,1.7402,1.7429,1.7419,1.7443,1.7439,1.7435,1.744,1.7487,1.7496,1.7469,1.7551,1.7523,1.7529,1.7543,1.7552,1.7559,1.7555,1.7441,0,0,0,0,0,1.7324,1.7353,1.7365,1.7409,1.7418,1.7422,1.7438,1.7435,1.7453,1.746,1.747,1.7488,1.7516,1.7535,1.7561,1.7616,1.762,1.7641,1.7648,1.7654,1.7659,1.7688,1.7697,1.7598,1.7598,1.7598,0,0,1.7351,1.7363,1.7381,1.7416,1.7429,1.7458,1.7429,1.7462,1.7483,1.7465,1.7508,1.7516,1.7536,1.7586,1.7609,1.7595,1.7687,1.7659,1.7664,1.7666,1.7693,1.7703,1.7711,1.7601,1.76,1.76,0,0,1.7415,1.7428,1.7465,1.7478,1.7498,1.75,1.7509,1.7526,1.7531,1.7573,1.756,1.7586,1.7635,1.7649,1.7663,1.7732,1.7721,1.7741,1.7777,1.7805,1.7813,1.782,1.7844,1.7853,1.7747,1.7747,1.7747,0,1.7446,1.749,1.7486,1.752,1.7535,1.7519,1.7557,1.757,1.7598,1.7609,1.7593,1.7653,1.7665,1.7718,1.7735,1.7747,1.7757,1.7738,1.7812,1.7819,1.7826,1.7848,1.7857,1.7749,1.7749,1.7749,1.7748,0,1.7527,1.7558,1.7586,1.7612,1.763,1.7666,1.7668,1.7687,1.7682,1.7686,1.773,1.7744,1.7772,1.7785,1.7781,1.7837,1.7828,1.7812,1.7784,1.7837,1.7858,1.7867,1.7752,1.7751,1.7751,1.775,0,0,1.7612,1.7634,1.7645,1.7656,1.7676,1.77,1.7735,1.7762,1.7779,1.7798,1.7827,1.7868,1.7854,1.7869,1.7867,1.7892,1.7944,1.7873,1.7873,1.7885,1.8007,1.8017,1.8027,1.7937,1.7939,1.794,1.8005,0,1.7676,1.7736,1.7734,1.779,1.7818,1.7803,1.7834,1.785,1.7855,1.7879,1.7885,1.7913,1.7893,1.7902,1.7926,1.7933,1.7969,1.7928,1.7964,1.7965,1.7958,1.8039,1.805,1.811,1.8013,1.8014,1.8015,0,1.7759,1.778,1.7839,1.7855,1.7866,1.7894,1.7918,1.7942,1.796,1.7961,1.7979,1.7972,1.8007,1.7979,1.8028,1.8,1.8015,1.8021,1.8023,1.8025,1.7993,1.8043,1.813,1.8138,1.8029,1.8028,1.8027,0,1.7813,1.7857,1.7898,1.7908,1.7927,1.7947,1.7956,1.7972,1.7988,1.801,1.802,1.8046,1.806,1.8081,1.8081,1.806,1.813,1.8102,1.8132,1.8132,1.8147,1.8146,1.8237,1.8158,1.8158,1.8158,1.8158,0,1.7885,1.7921,1.7922,1.7947,1.7988,1.7984,1.8025,1.8032,1.8046,1.8072,1.8062,1.8087,1.8086,1.8112,1.8112,1.8152,1.8159,1.8161,1.8161,1.8162,1.8161,1.817,1.8166,1.816,1.816,1.8159,1.8159,0,1.7952,1.7954,1.7997,1.8012,1.8016,1.8046,1.8058,1.8082,1.8086,1.8119,1.8127,1.8133,1.8162,1.8165,1.8199,1.82,1.8248,1.8243,1.8241,1.824,1.827,1.8267,1.837,1.8382,1.8297,1.8297,1.8298,0,1.7996,1.8024,1.8041,1.8058,1.8068,1.8095,1.8111,1.8109,1.8127,1.8149,1.817,1.8198,1.822,1.8268,1.8276,1.8302,1.8298,1.8332,1.8302,1.8301,1.8297,1.8295,1.8297,1.8337,1.8338,1.8339,1.834,0,1.8075,1.8075,1.8099,1.8123,1.8142,1.8162,1.8179,1.8194,1.8194,1.8214,1.8244,1.8261,1.8296,1.8324,1.8349,1.8359,1.835,1.8349,1.8358,1.8358,1.8355,1.8356,1.8256,1.8347,1.8346,1.8346,1.8345,1.8345,1.8132,1.8155,1.8171,1.8198,1.8211,1.8228,1.825,1.8257,1.8281,1.8308,1.8306,1.8339,1.8356,1.8389,1.8401,1.8426,1.8415,1.8427,1.843,1.8433,1.8435,1.8352,1.8431,1.8431,1.8431,1.8431,1.8431,0,1.8209,1.8218,1.8243,1.8268,1.8289,1.8278,1.8297,1.8315,1.8344,1.836,1.8382,1.8416,1.8443,1.8453,1.8479,1.8498,1.8494,1.8505,1.8503,1.8505,1.8445,1.8434,1.8507,1.8507,1.8507,1.8507,1.8507,1.8507,1.8252,1.829,1.8292,1.8337,1.8346,1.8378,1.8389,1.8405,1.8418,1.8455,1.8478,1.8484,1.8498,1.8525,1.855,1.8552,1.8562,1.8574,1.8574,1.8517,1.851,1.8502,1.8492,1.8577,1.8577,1.8633,1.8633,1.8634]},{"header":{"parameterUnit":"m.s-1","parameterCategory":1,"la1":30.2991,"la2":30.254,"lo1":-89.0895,"lo2":-89.0444,"dy":0.0017,"dx":0.0017,"nx":28,"ny":28,"refTime":"2025-05-15T09:00:00:Z","depth":0,"parameterNumber":3,"parameterNumberName":"V-component_of_WINDS"},"data":[0,0,0,0,0,0,0,0,0,0,0,0,0,0,0,0,0,0,0,0,0,0,0,0,0,0,0,0,0,0,0,0,0,0,0,0,0,0,0,0,0,0,0,0,0,0,0,0,0,0,0,0,0,0,0,0,0,0,4.6957,4.6958,0,4.6979,4.698,4.698,4.6939,4.6938,4.6936,4.6935,4.6954,4.6956,4.6957,0,0,0,0,0,0,0,0,0,0,0,0,0,4.6876,4.6878,4.6957,4.6958,4.6958,4.6979,4.698,4.698,4.6939,4.6938,4.6936,4.6934,4.6953,4.6955,4.6957,0,0,0,0,0,0,0,0,0,0,0,0,0,4.6906,4.6879,4.6957,4.694,4.6939,4.6979,4.698,4.698,4.694,4.6938,4.6936,4.6934,4.6953,4.6955,4.6958,4.7015,0,0,4.6966,4.6967,0,0,0,0,0,0,0,0,4.6905,4.6909,4.6942,4.6941,4.694,4.6954,4.6958,4.6991,4.694,4.6939,4.6935,4.6933,4.6955,4.6958,4.6966,4.7015,4.7016,4.6966,4.6968,4.6969,4.6969,0,0,0,0,0,0,0,4.6903,4.6908,4.6966,4.6943,4.6942,4.693,4.6932,4.6964,4.6958,4.6939,4.6936,4.694,4.6954,4.6964,4.6966,4.7016,4.6966,4.6968,4.697,4.6971,4.7115,4.7117,0,0,0,0,0,0,4.6903,4.6907,4.6965,4.6967,4.6917,4.6934,4.6936,4.6952,4.6958,4.6957,4.6941,4.6938,4.696,4.6963,4.6967,4.7035,4.6969,4.6971,4.6973,4.7113,4.7115,4.7118,0,0,0,0,0,0,4.6902,4.6909,4.6964,4.6936,4.6942,4.6937,4.6955,4.6953,4.6963,4.696,4.6958,4.6952,4.6959,4.6963,4.7004,4.7035,4.6972,4.6975,4.711,4.7113,4.7117,4.7171,0,0,0,0,0,0,4.69,4.6909,4.6931,4.6937,4.6944,4.7002,4.6957,4.6955,4.6968,4.6963,4.6969,4.6968,4.6957,4.7,4.7006,4.7037,4.6977,4.7107,4.7112,4.7116,4.7167,4.7176,4.7184,0,0,0,0,0,4.6897,4.6944,4.6932,4.6939,4.6972,4.7004,4.7008,4.6995,4.6971,4.6992,4.6991,4.6968,4.703,4.7004,4.7011,4.7044,4.7105,4.711,4.7115,4.7163,4.7174,4.7184,0,0,0,0,0,0,4.694,4.6944,4.6931,4.6982,4.6993,4.6997,4.7024,4.7007,4.7025,4.7019,4.7002,4.7004,4.7048,4.7049,4.702,4.71,4.7063,4.707,4.7097,4.7108,4.7117,4.7116,4.6979,0,0,0,0,0,4.6955,4.6982,4.6984,4.7029,4.7035,4.7029,4.7042,4.7032,4.7042,4.7046,4.7047,4.7057,4.7079,4.7093,4.7113,4.7166,4.7167,4.7192,4.7201,4.7208,4.7214,4.7244,4.7255,4.7134,4.7134,4.7134,0,0,4.6987,4.6993,4.7011,4.7038,4.7045,4.7073,4.7033,4.7063,4.7083,4.705,4.7089,4.7091,4.71,4.7148,4.7169,4.7151,4.7248,4.7215,4.722,4.7222,4.725,4.7262,4.7272,4.7138,4.7137,4.7137,0,0,4.706,4.7067,4.7106,4.7115,4.7127,4.7123,4.7132,4.7139,4.7139,4.7179,4.7155,4.7178,4.7215,4.7224,4.7233,4.7311,4.7291,4.7318,4.7364,4.7393,4.7402,4.7411,4.7439,4.745,4.7324,4.7324,4.7324,0,4.7098,4.714,4.7127,4.716,4.7173,4.7146,4.7185,4.7194,4.7211,4.722,4.72,4.7248,4.7252,4.7302,4.7322,4.733,4.734,4.7317,4.7402,4.741,4.7418,4.7445,4.7456,4.7327,4.7327,4.7326,4.7326,0,4.7186,4.7216,4.7245,4.7266,4.7281,4.7317,4.7309,4.7327,4.7315,4.7313,4.7354,4.7359,4.738,4.739,4.7379,4.7439,4.7428,4.7405,4.7368,4.7433,4.7458,4.7469,4.7332,4.733,4.7329,4.7329,0,0,4.7286,4.7301,4.7312,4.7321,4.7334,4.7356,4.739,4.7413,4.7428,4.7441,4.747,4.7503,4.7483,4.7494,4.7482,4.7508,4.7571,4.7482,4.7482,4.75,4.7639,4.7657,4.767,4.7558,4.756,4.7561,4.7639,0,4.7359,4.7421,4.7412,4.7471,4.7498,4.7474,4.7504,4.7514,4.7514,4.7536,4.7534,4.7559,4.7529,4.7536,4.756,4.7558,4.7599,4.7552,4.7584,4.7586,4.7584,4.7683,4.7702,4.7775,4.7649,4.765,4.7652,0,4.7453,4.7473,4.7535,4.7545,4.7556,4.7584,4.7604,4.7626,4.7638,4.7635,4.7648,4.7633,4.7667,4.763,4.7676,4.7645,4.7657,4.7659,4.7661,4.7664,4.7623,4.769,4.7797,4.7809,4.7667,4.7666,4.7665,0,4.7521,4.7562,4.7606,4.7615,4.7627,4.7647,4.7653,4.7663,4.7677,4.7695,4.7704,4.7724,4.7736,4.7752,4.7742,4.7716,4.7791,4.7753,4.779,4.7791,4.7807,4.7807,4.792,4.7814,4.7814,4.7814,4.7813,0,4.7605,4.7644,4.7637,4.7664,4.7707,4.7696,4.7739,4.7741,4.7751,4.7777,4.7756,4.7781,4.7767,4.779,4.7783,4.7823,4.7828,4.7827,4.7825,4.783,4.783,4.7838,4.7833,4.7816,4.7816,4.7815,4.7815,0,4.7688,4.7685,4.7731,4.774,4.7743,4.7775,4.7782,4.7807,4.7805,4.7838,4.7845,4.7842,4.7869,4.7861,4.7889,4.7884,4.7936,4.7927,4.7933,4.7931,4.797,4.7967,4.8093,4.8109,4.7992,4.7993,4.7994,0,4.7742,4.7772,4.7785,4.7803,4.7811,4.7838,4.7854,4.7844,4.786,4.7877,4.79,4.7925,4.7945,4.7989,4.7989,4.801,4.8002,4.8045,4.8005,4.801,4.8004,4.8003,4.8006,4.8053,4.8054,4.8055,4.8056,0,4.7838,4.7836,4.786,4.7885,4.7905,4.7923,4.7938,4.7953,4.7944,4.7964,4.7993,4.8008,4.8039,4.8064,4.8085,4.8089,4.8072,4.8069,4.8079,4.8085,4.8088,4.8088,4.7956,4.8066,4.8065,4.8064,4.8064,4.8063,4.7909,4.7936,4.795,4.7978,4.799,4.8006,4.803,4.8033,4.8057,4.8082,4.8074,4.8107,4.8118,4.8144,4.8152,4.8176,4.816,4.8174,4.8178,4.8182,4.8188,4.8083,4.818,4.818,4.8179,4.8179,4.8179,0,4.8006,4.8015,4.8041,4.8065,4.8087,4.8071,4.8088,4.8107,4.8137,4.815,4.8171,4.8204,4.8229,4.8231,4.8255,4.8275,4.8267,4.8281,4.828,4.8282,4.82,4.819,4.8287,4.8287,4.8287,4.8287,4.8287,4.8287,4.8059,4.8104,4.8103,4.8154,4.8161,4.8195,4.8206,4.8221,4.8232,4.8271,4.8292,4.8294,4.8303,4.8327,4.835,4.835,4.836,4.8377,4.8374,4.8298,4.8287,4.8277,4.8267,4.8379,4.8379,4.8454,4.8455,4.8455]}]]